Change the Weather History Date:

Saturday, February 9, 2013

  Actual Average Record
Temperature  
Mean Temperature 35 °F 31 °F  
Max Temperature 47 °F 44 °F 71 °F (1996)
Min Temperature 22 °F 19 °F -22 °F (1933)
Degree Days  
Heating Degree Days 30 34  
Month to date heating degree days 262 306  
Since 1 July heating degree days 3615 3949  
Cooling Degree Days 0 0  
Month to date cooling degree days 0 0  
Year to date cooling degree days 0 0  
Moisture  
Dew Point 20 °F    
Average Humidity 51    
Maximum Humidity 81    
Minimum Humidity 20    
Precipitation  
Precipitation 0.01 in 0.01 in 0.32 in (1966)
Month to date precipitation 0.14 0.09  
Year to date precipitation 0.32 0.41  
Snow  
Snow 0.10 in 0.20 in 5.80 in (1966)
Month to date snowfall 0.2 1.6  
Since 1 July snowfall 9.7 20.7  
Snow Depth 0.00 in    
Sea Level Pressure  
Sea Level Pressure 29.56 in    
Wind  
Wind Speed 14 mph (North)    
Max Wind Speed 30 mph    
Max Gust Speed 36 mph    
Visibility 8 miles    
Events Snow    
T = Trace of Precipitation, MM = Missing Value Source: NWS Daily Summary

Daily Weather History Graph

Daily Weather History Graph

Search for Another Location

Airport or City:

Trip Planner

Search our weather history database for the weather conditions in past years. The results will help you decide how hot, cold, wet, or windy it might be!

Date:

Astronomy

Feb. 09, 2013 Rise Set
Actual Time 6:56 AM MST 5:29 PM MST
Civil Twilight 6:28 AM MST 5:57 PM MST
Nautical Twilight 5:57 AM MST 6:28 PM MST
Astronomical Twilight 5:26 AM MST 7:00 PM MST
Moon 6:09 AM MST (2/9) 5:15 PM MST (2/9)
Length of Visible Light 11h 28m
Length of Day
10h 33m
Waning Crescent, 0% of the Moon is Illuminated
Feb 9
Waning Crescent
Feb 10
New
Feb 17
First Quarter
Feb 25
Full
Mar 4
Last Quarter

Hourly Weather History & Observations

Time (MST) Temp. Windchill Dew Point Humidity Pressure Visibility Wind Dir Wind Speed Gust Speed Precip Events Conditions
12:54 AM 28.9 °F 20.4 °F 19.9 °F 69% 29.76 in 10.0 mi NE 9.2 mph - N/A   Clear
1:54 AM 28.9 °F 19.8 °F 19.9 °F 69% 29.72 in 10.0 mi East 10.4 mph - N/A   Clear
2:54 AM 28.9 °F 20.4 °F 19.9 °F 69% 29.67 in 10.0 mi ENE 9.2 mph - N/A   Clear
3:54 AM 26.1 °F 16.2 °F 19.0 °F 75% 29.66 in 10.0 mi ENE 10.4 mph - N/A   Clear
4:54 AM 28.0 °F 22.8 °F 19.9 °F 72% 29.66 in 10.0 mi NE 4.6 mph - N/A   Clear
5:54 AM 23.0 °F 13.1 °F 17.1 °F 78% 29.70 in 10.0 mi NNE 9.2 mph - N/A   Clear
6:54 AM 23.0 °F 13.9 °F 17.1 °F 78% 29.69 in 10.0 mi NNE 8.1 mph - N/A   Partly Cloudy
7:54 AM 28.9 °F 25.2 °F 21.0 °F 72% 29.65 in 10.0 mi North 3.5 mph - N/A   Partly Cloudy
8:54 AM 35.1 °F 32.2 °F 21.9 °F 59% 29.63 in 10.0 mi NW 3.5 mph - N/A   Partly Cloudy
9:54 AM 37.9 °F 34.4 °F 21.9 °F 53% 29.59 in 10.0 mi Variable 4.6 mph - N/A   Partly Cloudy
10:54 AM 42.1 °F 36.6 °F 21.0 °F 43% 29.55 in 10.0 mi SE 9.2 mph - N/A   Partly Cloudy
11:54 AM 44.1 °F 38.6 °F 19.0 °F 37% 29.49 in 10.0 mi SE 10.4 mph - N/A   Partly Cloudy
12:54 PM 46.0 °F 38.8 °F 10.9 °F 24% 29.45 in 10.0 mi South 18.4 mph 27.6 mph N/A   Partly Cloudy
1:54 PM 45.0 °F 36.9 °F 7.0 °F 21% 29.44 in 10.0 mi South 20.7 mph - N/A   Scattered Clouds
2:37 PM 41.0 °F 31.1 °F 19.4 °F 42% 29.44 in 9.0 mi NNW 23.0 mph 34.5 mph N/A   Scattered Clouds
2:54 PM 36.0 °F 24.4 °F 19.0 °F 50% 29.49 in 10.0 mi North 23.0 mph 35.7 mph N/A   Scattered Clouds
3:54 PM 35.1 °F 22.5 °F 19.9 °F 54% 29.51 in 10.0 mi North 26.5 mph 34.5 mph N/A   Scattered Clouds
4:54 PM 32.0 °F 19.2 °F 19.9 °F 61% 29.54 in 10.0 mi NNW 23.0 mph 28.8 mph N/A   Mostly Cloudy
5:54 PM 30.9 °F 19.4 °F 21.0 °F 67% 29.58 in 8.0 mi NW 17.3 mph 24.2 mph 0.00 in Snow Light Snow
6:06 PM 30.2 °F 18.9 °F 21.2 °F 69% 29.47 in 2.5 mi NNW 16.1 mph - 0.00 in Snow Light Snow
6:21 PM 30.2 °F 18.9 °F 23.0 °F 75% 29.48 in 1.8 mi NNW 16.1 mph - 0.00 in Snow Light Snow
6:35 PM 30.2 °F 21.3 °F 23.0 °F 75% 29.48 in 3.0 mi North 10.4 mph - 0.00 in Snow Light Snow
6:43 PM 30.2 °F 20.8 °F 21.2 °F 69% 29.48 in 1.5 mi North 11.5 mph - 0.00 in Snow Light Snow
6:54 PM 30.0 °F 19.5 °F 24.1 °F 79% 29.58 in 1.5 mi NNE 13.8 mph - 0.01 in Snow Light Snow
7:06 PM 30.2 °F 20.2 °F 23.0 °F 75% 29.47 in 4.0 mi NNE 12.7 mph - 0.00 in Snow Light Snow
7:43 PM 30.2 °F 18.1 °F 21.2 °F 69% 29.47 in 8.0 mi North 18.4 mph - 0.00 in Snow Light Snow
7:54 PM 30.0 °F 19.1 °F 21.9 °F 72% 29.55 in 8.0 mi North 15.0 mph - 0.00 in   Overcast
8:54 PM 30.0 °F 20.0 °F 21.9 °F 72% 29.53 in 7.0 mi North 12.7 mph 23.0 mph 0.00 in Snow Light Snow
9:54 PM 28.9 °F 15.4 °F 19.9 °F 69% 29.53 in 8.0 mi North 21.9 mph 27.6 mph 0.00 in Snow Light Snow
10:31 PM 26.6 °F 13.8 °F 17.6 °F 69% 29.50 in 9.0 mi North 17.3 mph - 0.00 in Snow Light Snow
10:54 PM 26.1 °F 12.3 °F 17.1 °F 69% 29.54 in 10.0 mi North 19.6 mph - 0.00 in   Mostly Cloudy
11:54 PM 26.1 °F 11.6 °F 18.0 °F 71% 29.54 in 9.0 mi North 21.9 mph 31.1 mph N/A   Mostly Cloudy